Probability
90 86 88 89 83 78 78 78 80 82 78 68 63 58 58 64 70 76 86 94 98 98 95 91 79 60 41 27 18 14 12 9 8 9 8 7 6 6 4 2 1 0 0
89 86 84 85 81 76 73 72 74 78 76 70 65 58 53 58 69 78 85 91 96 97 96 92 84 70 54 41 31 25 24 22 18 15 14 13 12 11 8 5 3 2 1
78 74 71 72 72 69 66 64 65 69 69 67 64 57 50 53 65 76 81 85 88 91 92 90 85 77 68 60 53 49 48 46 38 30 27 25 22 18 14 11 9 6 4
52 51 49 52 55 55 53 53 55 58 61 61 59 57 54 56 62 69 74 76 77 78 83 84 82 79 76 74 72 71 70 68 59 51 48 45 38 29 22 18 15 11 9
26 27 28 32 36 36 37 40 43 46 51 53 52 52 56 59 61 63 67 69 68 66 68 73 77 78 78 77 76 78 79 79 76 71 68 67 61 49 37 28 23 18 15
11 13 14 17 19 19 22 27 31 34 38 42 42 45 50 55 58 62 67 70 66 61 58 63 71 76 75 69 68 72 77 81 85 84 82 82 80 72 58 44 34 26 22
6 6 5 6 7 8 11 15 19 22 25 28 34 36 38 44 53 62 71 75 71 64 58 60 68 73 72 63 56 60 68 75 82 85 88 88 88 83 75 63 50 37 28
8 6 4 2 1 2 4 6 10 13 15 20 28 32 30 34 44 56 69 77 76 71 65 60 64 69 70 64 55 50 54 61 70 79 86 88 87 85 83 78 67 48 33
18 14 9 5 2 1 1 2 5 7 10 13 21 29 29 28 32 41 52 63 71 75 70 61 58 61 63 63 57 48 45 49 57 69 79 81 80 79 79 80 76 60 45
36 29 21 15 10 6 2 1 2 4 6 7 13 21 25 24 24 25 28 37 53 67 70 65 58 55 56 59 55 46 42 41 44 54 62 65 65 66 69 72 75 69 59
60 51 41 35 27 18 9 5 4 4 5 6 8 11 14 17 18 15 11 16 28 46 62 68 65 59 57 54 46 36 32 29 27 30 36 41 44 49 55 61 65 67 66
75 70 65 58 47 33 21 15 12 8 7 10 10 7 7 10 12 10 7 6 11 27 49 65 68 65 59 49 34 22 17 13 10 10 13 18 24 30 38 44 48 54 57
83 82 80 74 62 48 35 28 23 16 11 12 10 7 5 7 8 8 6 3 5 16 35 52 60 61 55 42 24 11 7 4 3 3 3 5 9 14 19 22 27 33 36
83 84 84 79 73 60 47 39 32 22 16 13 8 6 6 6 6 7 6 4 3 9 21 35 46 50 46 33 16 7 4 2 1 1 1 1 2 4 5 7 9 13 15
72 75 78 78 75 68 58 49 37 24 19 16 10 6 6 7 7 7 7 5 3 5 12 24 34 38 34 22 10 5 4 1 0 0 0 0 0 0 0 1 2 2 3
54 58 64 69 70 68 61 53 41 25 18 16 12 7 6 8 7 6 6 6 6 6 10 17 22 23 19 12 6 4 3 1 0 0 0 0 0 0 0 0 0 0 0
31 36 46 54 58 58 57 51 39 23 13 11 9 6 5 6 6 6 6 7 7 7 7 10 12 11 9 6 4 2 1 0 0 0 0 0 0 0 0 0 0 0 0
10 15 25 35 40 44 49 48 36 21 11 8 6 4 4 3 3 5 6 6 5 4 3 4 4 4 5 5 3 2 1 0 0 0 0 0 0 0 0 0 0 0 0
1 4 10 18 24 30 36 38 33 22 14 9 5 3 2 2 2 4 6 5 3 1 1 1 0 1 3 3 2 1 0 0 0 0 0 0 0 0 0 0 0 0 0
0 0 3 7 11 16 19 23 24 20 15 12 7 2 1 2 2 3 4 4 3 1 1 0 0 1 2 2 1 0 0 0 0 0 0 0 0 0 0 0 0 0 0
0 0 0 1 3 5 7 9 12 13 12 10 6 2 1 1 1 1 3 4 3 1 0 0 0 1 1 1 0 0 0 0 0 0 0 0 0 0 0 0 0 0 0
0 0 0 0 0 1 1 2 4 5 6 5 3 1 0 0 0 0 1 3 2 1 0 0 1 1 0 0 0 0 0 0 0 0 0 0 0 0 0 0 0 0 0
0 0 0 0 0 0 0 0 0 1 2 2 1 0 0 0 0 0 0 1 1 0 0 0 0 0 0 0 0 0 0 0 0 0 0 0 0 0 0 0 0 0 0
0 0 0 0 0 0 0 0 0 0 0 1 1 0 0 0 0 0 0 0 0 0 0 0 0 0 0 0 0 0 0 0 0 0 0 0 0 0 0 0 0 0 0
0 0 0 0 0 0 0 0 0 0 0 0 0 0 0 0 0 0 0 0 0 0 0 0 0 0 0 0 0 0 0 0 0 0 0 0 0 0 0 0 0 0 0
0 0 0 0 0 0 0 0 0 0 0 0 0 0 0 0 0 0 0 0 0 0 0 0 0 0 0 0 0 0 0 0 0 0 0 0 0 0 0 0 0 0 0
Wind_Speed
2 3 2 2 4 3 3 3 3 4 4 5 6 6 7 8 7 6 4 15 17 17 17 17 17 18 18 17 17 18 18 18 17 18 19 20 20 20 19 19 18 17 17
1 2 3 3 3 4 4 3 4 4 4 3 5 6 7 7 6 5 4 9 16 18 18 18 18 18 19 19 18 18 18 18 18 18 19 20 20 20 20 20 20 19 18
1 2 3 4 4 4 4 4 5 4 5 5 6 7 7 8 7 6 6 4 7 16 19 19 19 19 19 20 19 19 18 18 18 18 19 20 20 21 21 21 20 20 19
1 2 3 3 2 3 4 4 4 4 5 5 5 6 7 6 8 8 7 6 6 7 14 20 20 19 20 21 20 19 18 18 18 18 19 20 21 21 21 21 21 20 20
2 2 2 3 3 3 3 5 3 3 4 5 5 6 7 7 7 9 9 10 9 8 7 12 21 21 21 22 21 20 19 18 18 18 19 20 21 21 21 21 21 21 21
2 3 3 3 4 3 3 3 4 4 4 5 7 7 5 6 7 8 10 10 9 10 10 9 9 14 21 20 20 20 19 19 18 19 19 19 20 21 21 21 22 21 21
2 2 3 3 4 3 4 5 4 5 5 4 4 5 6 8 9 9 8 8 9 10 9 8 7 7 9 19 20 19 20 20 19 19 19 19 19 19 20 21 22 22 21
0 3 2 3 4 4 5 5 4 4 5 5 4 5 5 5 6 10 8 9 10 8 8 10 8 7 6 6 10 19 19 19 19 18 18 18 18 18 19 21 21 22 22
2 2 2 3 4 4 4 5 5 5 5 5 4 4 4 4 5 4 6 6 7 7 7 6 7 7 8 5 5 12 16 16 16 17 16 15 16 17 18 20 21 22 22
3 3 3 3 3 3 5 5 4 4 5 5 5 4 5 6 5 5 5 5 6 6 7 6 5 5 6 4 5 6 9 10 11 13 13 14 14 16 17 19 21 22 22
5 5 5 3 3 4 5 4 5 5 4 6 5 5 6 6 6 6 7 6 5 3 4 5 4 3 2 1 2 3 5 7 7 9 10 12 13 15 17 19 21 22 22
4 5 5 4 3 4 4 4 5 6 5 6 5 6 6 6 5 5 6 6 6 4 2 0 1 1 1 2 2 5 4 3 3 4 5 7 8 10 12 16 18 20 22
5 3 2 2 3 4 4 5 5 6 6 7 6 6 6 6 6 6 6 6 6 3 1 1 2 2 2 3 4 7 7 5 3 2 1 1 2 2 3 6 10 14 17
6 6 4 3 4 5 6 5 5 6 6 6 8 7 6 6 6 6 6 5 5 3 1 1 2 3 3 4 5 6 6 8 7 7 7 7 6 6 6 5 4 2 2
8 8 7 6 5 6 6 6 6 6 6 6 7 7 6 6 6 6 5 5 5 4 2 1 2 3 3 4 5 6 7 10 11 10 10 10 11 11 11 11 11 11 10
8 9 9 8 7 7 7 7 6 6 6 6 6 7 7 6 5 5 5 5 6 5 2 1 2 3 4 6 8 8 9 13 13 12 12 12 13 14 14 14 14 14 13
8 9 9 9 9 8 8 7 7 7 7 7 7 7 7 6 5 5 4 4 5 4 3 2 3 3 5 6 7 7 6 7 8 13 14 14 14 15 15 15 15 15 15
9 10 10 10 10 10 8 8 8 7 7 8 7 7 7 6 5 4 3 4 3 3 5 7 4 3 4 6 6 7 6 7 7 13 15 15 15 15 16 16 16 16 16
9 10 10 10 11 10 9 9 8 7 7 7 6 6 6 5 4 3 3 3 3 4 5 7 6 3 3 5 6 7 8 6 8 10 14 15 15 16 16 15 15 15 15
10 10 10 9 10 11 11 10 8 7 6 6 5 5 5 4 3 3 3 3 4 6 7 8 7 5 4 4 5 6 6 5 6 8 9 10 14 16 15 15 15 14 13
11 10 9 9 9 10 10 8 7 7 5 4 3 3 2 1 1 1 3 4 6 7 7 8 7 6 5 5 5 4 6 5 5 6 6 6 6 6 8 11 13 13 12
10 9 9 9 9 10 9 6 6 6 5 4 3 1 1 2 4 6 7 7 8 9 8 7 7 7 6 5 4 5 5 5 4 4 5 5 5 6 6 6 8 11 11
9 9 8 9 9 9 9 8 7 5 5 4 3 3 3 3 5 7 10 11 9 9 8 7 8 7 7 5 5 5 4 4 4 4 6 7 6 6 5 6 8 9 10
7 8 8 9 9 9 8 8 8 6 5 4 4 4 4 5 5 8 9 9 8 7 7 6 7 7 7 5 5 5 5 5 4 4 6 7 6 6 6 4 6 8 9
8 9 9 9 8 7 7 8 8 6 5 5 5 5 6 7 8 10 10 11 10 8 11 14 12 11 11 9 5 4 4 5 5 3 3 5 6 6 4 4 4 6 7
8 10 10 8 8 7 6 8 10 6 5 5 5 5 8 10 10 10 9 11 11 9 9 10 9 8 7 6 5 3 2 4 5 3 2 4 6 5 4 3 4 4 4
Wind_Direction
246 276 297 305 298 290 264 235 248 245 237 244 252 249 238 233 233 224 195 185 189 196 202 207 214 219 222 222 222 221 221 221 219 216 217 218 218 218 218 217 216 215 214
262 287 288 286 279 284 293 293 284 273 270 268 270 272 271 262 254 239 224 199 199 202 205 209 214 219 222 222 221 221 221 221 220 218 218 218 218 218 219 218 217 216 214
233 260 271 268 262 267 274 273 276 272 266 263 259 260 263 261 259 254 248 235 215 212 210 212 214 217 220 221 221 220 219 219 219 218 218 217 217 218 218 218 218 216 214
267 262 268 270 277 267 260 256 249 256 259 258 259 258 258 255 250 247 246 242 238 234 217 215 216 217 218 220 221 220 218 218 219 218 217 216 217 217 218 218 218 216 214
319 305 300 302 304 288 279 281 284 266 268 265 260 253 249 250 250 248 240 239 238 232 227 218 217 217 219 220 221 219 218 218 219 219 217 216 217 217 217 218 218 217 215
9 12 311 334 338 309 299 311 315 297 277 263 267 267 254 246 245 244 242 240 236 234 231 232 215 218 220 220 221 221 219 219 219 219 219 218 218 217 216 217 217 217 215
22 339 305 331 310 302 321 312 299 297 292 281 273 272 258 243 237 236 235 237 240 236 231 224 220 214 210 219 223 224 223 223 222 220 220 219 219 217 216 216 217 217 216
16 295 354 326 319 328 304 296 309 303 297 297 289 292 288 272 243 240 229 229 235 238 235 230 222 220 218 205 216 223 226 227 226 223 221 220 219 218 217 217 217 216 215
221 261 287 289 306 299 303 332 307 293 298 303 285 273 283 286 313 285 255 242 234 229 232 232 228 223 222 217 208 214 222 227 228 228 226 223 222 220 219 218 218 217 215
221 231 246 262 279 290 298 295 327 332 309 296 290 274 265 280 290 296 296 280 254 236 230 231 232 227 225 214 213 204 209 218 226 232 233 231 228 224 222 221 221 219 217
219 218 221 228 252 270 280 294 298 291 288 284 288 293 291 283 264 265 281 287 289 264 231 226 223 222 210 170 167 162 186 198 211 229 236 238 236 232 227 225 225 224 220
237 218 211 205 228 258 280 290 287 285 278 280 282 280 279 278 276 268 272 279 280 277 264 216 162 129 111 101 99 96 107 149 184 221 234 238 239 235 232 229 229 229 225
291 270 257 209 242 261 269 269 272 273 273 273 272 270 270 269 272 274 273 275 279 283 310 50 60 71 80 88 92 92 86 94 102 121 144 189 221 221 222 230 232 234 232
318 326 323 285 257 258 268 270 276 273 271 273 276 272 268 267 265 262 261 266 275 271 259 98 56 59 68 78 92 93 88 83 83 81 80 80 79 79 80 85 89 97 184
323 328 321 305 284 270 264 265 268 270 274 271 272 272 265 263 258 255 252 242 239 245 236 127 93 70 79 81 87 89 89 82 82 81 80 80 78 77 77 79 79 78 78
325 318 313 304 292 279 269 262 267 270 273 273 270 269 267 263 260 255 247 241 231 226 212 133 112 111 99 101 90 92 91 85 78 80 79 80 79 76 73 74 76 77 78
315 311 305 297 289 283 273 265 265 270 276 279 281 280 275 267 258 254 245 235 227 207 176 127 105 107 104 108 106 104 101 89 82 80 82 80 79 77 74 73 72 74 76
303 303 302 296 286 281 276 271 268 273 279 283 286 287 284 278 265 257 239 228 214 186 158 142 130 118 107 114 112 110 105 98 92 84 83 81 79 78 77 76 74 72 73
288 293 296 297 292 284 279 273 267 267 271 279 284 284 283 276 265 245 223 205 179 157 141 136 133 121 110 115 109 107 108 106 102 99 88 82 81 79 76 76 76 75 74
275 277 281 288 293 289 279 272 268 263 265 273 280 285 288 275 261 233 211 180 154 139 132 130 130 128 119 120 119 122 120 121 118 108 95 95 91 84 80 79 80 80 78
271 273 277 282 287 287 278 274 270 263 259 262 269 287 298 347 324 209 182 151 142 135 134 132 133 131 132 137 138 140 129 127 120 125 125 123 111 95 85 79 80 82 83
267 270 274 283 288 294 303 289 271 267 258 246 239 229 185 133 109 103 111 123 133 140 143 139 137 139 140 139 134 138 139 142 140 151 135 121 108 93 85 82 87 89 87
283 282 284 285 286 290 284 257 243 248 243 228 210 195 182 143 138 121 108 103 101 113 130 139 139 141 139 145 145 140 140 134 124 141 125 114 105 96 93 99 107 101 94
283 283 281 280 281 283 278 246 230 233 233 210 191 173 152 145 144 135 126 110 94 88 103 112 117 118 118 126 132 136 132 117 113 122 127 123 123 115 110 113 128 120 111
279 278 277 271 274 278 269 243 227 227 212 189 166 154 148 142 140 136 124 116 106 93 85 95 100 105 106 105 111 127 141 133 129 128 122 122 132 129 126 130 146 138 119
272 273 272 269 269 273 268 238 228 228 200 167 152 144 143 139 140 136 129 127 122 121 118 110 107 113 113 106 98 111 156 146 135 122 113 117 142 141 133 144 151 157 138